FW2736 Weather Reports


Display with metric or nautical units.
time (UTC)temp
F
wind
direction
speed
MPH
gust
MPH
rain 1hr
in
rain 24hr
in
rain mn
in
humidity
%
barometer
mb
20260904071223 64 165 4.0 0.0 0.00 0.00 0.00 73 960.7
20260904070723 64 274 4.0 0.0 0.00 0.00 0.00 73 960.7
20260904070224 64 282 4.0 0.0 0.00 0.00 0.00 72 960.7
20260904065724 64 301 3.0 0.0 0.00 0.00 0.00 71 960.7
20260904065222 64 223 5.0 0.0 0.00 0.00 0.00 71 960.7
20260904064721 64 169 5.0 0.0 0.00 0.00 0.00 73 960.7
20260904064225 63 241 3.0 0.0 0.00 0.00 0.00 72 960.7
20260904063722 63 242 4.0 0.0 0.00 0.00 0.00 73 960.7
20260904063226 63 284 4.0 0.0 0.00 0.00 0.00 74 960.7
20260904062723 63 274 4.0 0.0 0.00 0.00 0.00 74 960.7
20260904062224 63 219 5.0 0.0 0.00 0.00 0.00 74 960.7
20260904061722 63 194 3.0 0.0 0.00 0.00 0.00 72 960.7
20260904061220 63 248 4.0 0.0 0.00 0.00 0.00 72 960.7
20260904060720 64 195 4.0 0.0 0.00 0.00 0.00 74 960.7
20260904060220 64 144 4.0 0.0 0.00 0.00 0.00 74 960.7
20260904055718 64 149 3.0 0.0 0.00 0.00 0.00 73 961.1
20260904055218 64 204 3.0 0.0 0.00 0.00 0.00 72 961.1
20260904054717 64 165 3.0 0.0 0.00 0.00 0.00 71 961.1
20260904054217 64 77 3.0 0.0 0.00 0.00 0.00 70 961.1
20260904053716 64 307 3.0 0.0 0.00 0.00 0.00 69 960.7
20260904053217 65 307 3.0 0.0 0.00 0.00 0.00 67 960.7
20260904052716 65 106 7.0 0.0 0.00 0.00 0.00 67 960.7
20260904052218 65 105 7.0 0.0 0.00 0.00 0.00 66 960.7
20260904051717 66 87 6.0 0.0 0.00 0.00 0.00 64 960.7
20260904051216 66 61 4.0 0.0 0.00 0.00 0.00 63 960.7
20260904050715 66 95 5.0 0.0 0.00 0.00 0.00 61 960.7
20260904050215 66 50 6.0 0.0 0.00 0.00 0.00 59 960.7
20260904045714 66 3 7.0 0.0 0.00 0.00 0.00 58 960.7
20260904045213 66 71 7.0 0.0 0.00 0.00 0.00 58 960.7
20260904044714 67 151 8.0 0.0 0.00 0.00 0.00 57 960.7
20260904044213 67 87 12.0 0.0 0.00 0.00 0.00 56 960.7
20260904043714 67 183 12.0 0.0 0.00 0.00 0.00 55 960.4
20260904043213 67 84 16.0 0.0 0.00 0.00 0.00 56 960.7
20260904042714 67 136 14.0 0.0 0.00 0.00 0.00 57 960.4
20260904042213 67 114 10.0 0.0 0.00 0.00 0.00 57 960.4
20260904041714 68 22 8.0 0.0 0.00 0.00 0.00 57 960.4
20260904041211 68 129 10.0 0.0 0.00 0.00 0.00 56 960.4
20260904040711 68 52 15.0 0.0 0.00 0.00 0.00 56 960.4
20260904040214 68 102 15.0 0.0 0.00 0.00 0.00 55 960.4
20260904035643 69 128 12.0 0.0 0.00 0.00 0.00 54 960.4
20260904035214 69 49 10.0 0.0 0.00 0.00 0.00 52 960.4
20260904034714 69 131 11.0 0.0 0.00 0.00 0.00 51 960.4
20260904034213 70 123 11.0 0.0 0.00 0.00 0.00 51 960.4
20260904033711 70 131 10.0 0.0 0.00 0.00 0.00 49 960.4
20260904033213 70 142 9.0 0.0 0.00 0.00 0.00 48 960.0
20260904032710 70 337 10.0 0.0 0.00 0.00 0.00 48 960.0
20260904032211 70 128 9.0 0.0 0.00 0.00 0.00 48 960.0
20260904031713 70 129 8.0 0.0 0.00 0.00 0.00 48 960.0
20260904031212 70 144 7.0 0.0 0.00 0.00 0.00 48 960.0
20260904030711 70 89 4.0 0.0 0.00 0.00 0.00 48 960.0
20260904030211 71 130 4.0 0.0 0.00 0.00 0.00 47 960.4
20260904025710 71 96 5.0 0.0 0.00 0.00 0.00 47 960.0
20260904025214 71 206 8.0 0.0 0.00 0.00 0.00 46 960.0
20260904024713 72 92 8.0 0.0 0.00 0.00 0.00 43 960.0
20260904024211 72 141 7.0 0.0 0.00 0.00 0.00 43 960.0
20260904023744 72 76 6.0 0.0 0.00 0.00 0.00 43 960.0
20260904023243 73 136 9.0 0.0 0.00 0.00 0.00 42 959.7
20260904022742 73 130 10.0 0.0 0.00 0.00 0.00 41 959.7
20260904022243 73 138 10.0 0.0 0.00 0.00 0.00 40 959.4
20260904021742 74 103 13.0 0.0 0.00 0.00 0.00 39 959.7
20260904021241 74 99 15.0 0.0 0.00 0.00 0.00 40 959.4
20260904020741 74 143 16.0 0.0 0.00 0.00 0.00 42 959.4
20260904020240 74 140 17.0 0.0 0.00 0.00 0.00 39 959.7
20260904015740 75 112 17.0 0.0 0.00 0.00 0.00 38 959.4
20260904015241 75 84 18.0 0.0 0.00 0.00 0.00 37 959.4
20260904014739 75 97 17.0 0.0 0.00 0.00 0.00 37 959.4
20260904014240 76 71 16.0 0.0 0.00 0.00 0.00 36 959.4
20260904013638 76 127 13.0 0.0 0.00 0.00 0.00 35 959.7
20260904013239 76 150 13.0 0.0 0.00 0.00 0.00 35 959.7
20260904012738 77 131 18.0 0.0 0.00 0.00 0.00 33 959.4
20260904012238 77 77 19.0 0.0 0.00 0.00 0.00 32 959.4
20260904011738 78 86 16.0 0.0 0.00 0.00 0.00 32 959.4
20260904011238 78 67 18.0 0.0 0.00 0.00 0.00 31 959.4
20260904010738 78 242 18.0 0.0 0.00 0.00 0.00 30 959.4
20260904010141 79 76 16.0 0.0 0.00 0.00 0.00 31 959.4
20260904005738 79 144 11.0 0.0 0.00 0.00 0.00 30 959.4
20260904005236 80 169 11.0 0.0 0.00 0.00 0.00 32 959.4
20260904004737 80 55 13.0 0.0 0.00 0.00 0.00 29 959.0
20260904004235 80 43 14.0 0.0 0.00 0.00 0.00 30 959.0
20260904003713 81 137 15.0 0.0 0.00 0.00 0.00 29 959.0
20260904003234 81 110 14.0 0.0 0.00 0.00 0.00 27 959.0
20260904002634 81 130 20.0 0.0 0.00 0.00 0.00 26 959.0
20260904002235 82 97 15.0 0.0 0.00 0.00 0.00 24 959.0
20260904001733 82 142 15.0 0.0 0.00 0.00 0.00 25 959.0
20260904001234 83 163 15.0 0.0 0.00 0.00 0.00 26 959.0
20260904000733 83 310 15.0 0.0 0.00 0.00 0.00 25 959.0
20260904000233 84 141 15.0 0.0 0.00 0.00 0.00 28 959.0
20260903235731 84 142 15.0 0.0 0.00 0.00 0.00 27 959.0
20260903235231 85 143 13.0 0.0 0.00 0.00 0.00 28 959.0
20260903234731 85 148 13.0 0.0 0.00 0.00 0.00 28 959.0
20260903234231 85 60 12.0 0.0 0.00 0.00 0.00 27 959.0
20260903233731 86 158 19.0 0.0 0.00 0.00 0.00 27 958.7
20260903233229 86 130 14.0 0.0 0.00 0.00 0.00 27 958.7
20260903232730 87 127 15.0 0.0 0.00 0.00 0.00 27 959.0
20260903232229 86 138 16.0 0.0 0.00 0.00 0.00 27 959.0
20260903231640 86 11 15.0 0.0 0.00 0.00 0.00 27 959.0
20260903231228 87 148 13.0 0.0 0.00 0.00 0.00 27 959.0
20260903230729 87 147 13.0 0.0 0.00 0.00 0.00 27 959.0
20260903230227 87 85 13.0 0.0 0.00 0.00 0.00 27 959.0
20260903225729 88 124 13.0 0.0 0.00 0.00 0.00 28 959.0
20260903225227 88 139 13.0 0.0 0.00 0.00 0.00 27 959.0
20260903224727 88 121 13.0 0.0 0.00 0.00 0.00 26 959.0
20260903224140 89 118 11.0 0.0 0.00 0.00 0.00 26 959.0
20260903223726 90 145 10.0 0.0 0.00 0.00 0.00 25 959.0
20260903223225 89 191 11.0 0.0 0.00 0.00 0.00 25 959.4
20260903222725 89 119 11.0 0.0 0.00 0.00 0.00 26 959.0
20260903222226 89 150 11.0 0.0 0.00 0.00 0.00 25 959.4
20260903221725 89 166 11.0 0.0 0.00 0.00 0.00 25 959.4
20260903221223 90 80 11.0 0.0 0.00 0.00 0.00 25 959.4
20260903220724 90 150 12.0 0.0 0.00 0.00 0.00 25 959.4
20260903220223 90 176 12.0 0.0 0.00 0.00 0.00 24 959.4
20260903215722 90 106 11.0 0.0 0.00 0.00 0.00 24 959.4
20260903215140 89 136 11.0 0.0 0.00 0.00 0.00 24 959.7
20260903214724 89 154 10.0 0.0 0.00 0.00 0.00 25 959.7
20260903214224 89 117 11.0 0.0 0.00 0.00 0.00 24 959.7
20260903213724 90 151 8.0 0.0 0.00 0.00 0.00 24 959.7
20260903213221 89 334 12.0 0.0 0.00 0.00 0.00 24 959.7
20260903212721 90 123 12.0 0.0 0.00 0.00 0.00 23 959.7
20260903212221 89 241 12.0 0.0 0.00 0.00 0.00 24 960.0
20260903211721 88 168 14.0 0.0 0.00 0.00 0.00 24 960.0
20260903211222 88 130 14.0 0.0 0.00 0.00 0.00 24 960.0
20260903210721 88 106 10.0 0.0 0.00 0.00 0.00 24 960.0
20260903210220 89 138 11.0 0.0 0.00 0.00 0.00 23 960.0
20260903205639 89 113 10.0 0.0 0.00 0.00 0.00 22 960.0
20260903205219 89 144 10.0 0.0 0.00 0.00 0.00 22 960.4
20260903204718 88 116 10.0 0.0 0.00 0.00 0.00 23 960.4
20260903204220 88 111 10.0 0.0 0.00 0.00 0.00 23 960.4
20260903203719 88 145 11.0 0.0 0.00 0.00 0.00 22 960.4
20260903203220 88 146 11.0 0.0 0.00 0.00 0.00 23 960.4
20260903202718 88 148 11.0 0.0 0.00 0.00 0.00 23 960.4
20260903202142 87 148 15.0 0.0 0.00 0.00 0.00 24 960.4
20260903201717 87 120 15.0 0.0 0.00 0.00 0.00 23 960.4
20260903201218 86 118 11.0 0.0 0.00 0.00 0.00 27 960.4
20260903200716 87 95 11.0 0.0 0.00 0.00 0.00 26 960.4
20260903200217 88 157 11.0 0.0 0.00 0.00 0.00 24 960.7
20260903195716 87 190 9.0 0.0 0.00 0.00 0.00 25 960.7
20260903195215 86 102 10.0 0.0 0.00 0.00 0.00 26 960.7
20260903194647 86 132 10.0 0.0 0.00 0.00 0.00 26 960.7
20260903194216 85 177 11.0 0.0 0.00 0.00 0.00 26 961.1
20260903193716 85 193 11.0 0.0 0.00 0.00 0.00 26 961.1
20260903193214 85 89 9.0 0.0 0.00 0.00 0.00 26 961.1
20260903192713 85 108 11.0 0.0 0.00 0.00 0.00 26 961.1
20260903192214 84 115 13.0 0.0 0.00 0.00 0.00 26 961.4
20260903191714 85 128 13.0 0.0 0.00 0.00 0.00 26 961.4
20260903191142 85 149 10.0 0.0 0.00 0.00 0.00 25 961.4
20260903190712 85 144 10.0 0.0 0.00 0.00 0.00 28 961.7
20260903190213 84 190 10.0 0.0 0.00 0.00 0.00 28 961.7
20260903185714 83 131 14.0 0.0 0.00 0.00 0.00 28 961.7
20260903185211 82 149 12.0 0.0 0.00 0.00 0.00 28 961.7
20260903184714 83 116 10.0 0.0 0.00 0.00 0.00 27 961.7
20260903184211 84 111 8.0 0.0 0.00 0.00 0.00 27 962.1
20260903183641 83 113 8.0 0.0 0.00 0.00 0.00 26 962.1
20260903183215 83 139 8.0 0.0 0.00 0.00 0.00 26 962.1
20260903182713 83 118 9.0 0.0 0.00 0.00 0.00 27 962.1
20260903182213 82 199 9.0 0.0 0.00 0.00 0.00 27 962.4
20260903181711 82 156 10.0 0.0 0.00 0.00 0.00 28 962.4
20260903181211 82 102 10.0 0.0 0.00 0.00 0.00 29 962.4
20260903180712 81 173 9.0 0.0 0.00 0.00 0.00 29 962.4
20260903180212 81 165 9.0 0.0 0.00 0.00 0.00 31 962.4
20260903175642 81 132 8.0 0.0 0.00 0.00 0.00 31 962.4
20260903175141 80 127 8.0 0.0 0.00 0.00 0.00 31 962.4
20260903174642 79 144 9.0 0.0 0.00 0.00 0.00 32 962.4
20260903174141 79 117 9.0 0.0 0.00 0.00 0.00 33 962.4
20260903173713 78 122 9.0 0.0 0.00 0.00 0.00 34 962.4
20260903173210 78 202 9.0 0.0 0.00 0.00 0.00 34 962.4
20260903172641 78 182 8.0 0.0 0.00 0.00 0.00 34 962.4
20260903172144 77 129 7.0 0.0 0.00 0.00 0.00 37 962.4
20260903171644 76 78 7.0 0.0 0.00 0.00 0.00 39 962.4
20260903171147 77 137 8.0 0.0 0.00 0.00 0.00 38 962.8
20260903170643 76 160 8.0 0.0 0.00 0.00 0.00 39 962.4
20260903170143 76 114 10.0 0.0 0.00 0.00 0.00 41 962.8
20260903165642 75 182 9.0 0.0 0.00 0.00 0.00 40 962.8
20260903165142 75 151 9.0 0.0 0.00 0.00 0.00 42 962.8
20260903164642 75 137 9.0 0.0 0.00 0.00 0.00 40 962.8
20260903164239 75 167 7.0 0.0 0.00 0.00 0.00 44 962.8
20260903163739 75 150 7.0 0.0 0.00 0.00 0.00 43 962.8
20260903163240 75 114 6.0 0.0 0.00 0.00 0.00 45 962.8
20260903162739 74 70 7.0 0.0 0.00 0.00 0.00 47 962.8
20260903162142 73 127 7.0 0.0 0.00 0.00 0.00 48 962.8
20260903161738 73 121 6.0 0.0 0.00 0.00 0.00 48 962.8
20260903161240 73 132 5.0 0.0 0.00 0.00 0.00 48 962.8
20260903160642 73 91 6.0 0.0 0.00 0.00 0.00 48 962.8
20260903160239 72 114 4.0 0.0 0.00 0.00 0.00 49 963.1
20260903155642 72 141 6.0 0.0 0.00 0.00 0.00 51 962.8
20260903155238 71 61 5.0 0.0 0.00 0.00 0.00 50 962.8
20260903154643 72 87 4.0 0.0 0.00 0.00 0.00 49 963.1
20260903154239 71 92 4.0 0.0 0.00 0.00 0.00 48 963.1
20260903153737 71 154 4.0 0.0 0.00 0.00 0.00 47 963.1
20260903153236 71 124 4.0 0.0 0.00 0.00 0.00 46 963.1
20260903152643 70 93 3.0 0.0 0.00 0.00 0.00 46 963.1
20260903152236 70 38 3.0 0.0 0.00 0.00 0.00 47 963.1
20260903151641 69 110 3.0 0.0 0.00 0.00 0.00 48 963.1
20260903151238 69 0 3.0 0.0 0.00 0.00 0.00 49 963.1
20260903150735 68 148 3.0 0.0 0.00 0.00 0.00 50 963.1
20260903150234 67 129 3.0 0.0 0.00 0.00 0.00 50 963.1
20260903145732 66 116 3.0 0.0 0.00 0.00 0.00 50 963.1
20260903145232 65 159 3.0 0.0 0.00 0.00 0.00 52 963.1
20260903144732 65 128 3.0 0.0 0.00 0.00 0.00 51 963.1
20260903144230 64 126 3.0 0.0 0.00 0.00 0.00 49 963.1
20260903143731 63 129 3.0 0.0 0.00 0.00 0.00 54 963.1
20260903143140 63 129 3.0 0.0 0.00 0.00 0.00 58 963.1
20260903142733 63 122 2.0 0.0 0.00 0.00 0.00 63 962.8
20260903142232 62 131 2.0 0.0 0.00 0.00 0.00 64 962.8
20260903141733 61 131 2.0 0.0 0.00 0.00 0.00 66 962.8
20260903141230 60 132 0.0 0.0 0.00 0.00 0.00 70 962.8
20260903140642 58 132 0.0 0.0 0.00 0.00 0.00 72 962.4
20260903140231 56 133 1.0 0.0 0.00 0.00 0.00 77 962.4
20260903135728 54 119 3.0 0.0 0.00 0.00 0.00 80 962.4
20260903135142 53 96 0.0 0.0 0.00 0.00 0.00 83 962.4
20260903134727 53 94 0.0 0.0 0.00 0.00 0.00 83 962.4
20260903134228 53 96 0.0 0.0 0.00 0.00 0.00 82 962.4
20260903133642 53 311 0.0 0.0 0.00 0.00 0.00 81 962.4
20260903133141 54 311 0.0 0.0 0.00 0.00 0.00 81 962.4
20260903132729 54 313 0.0 0.0 0.00 0.00 0.00 82 962.4
20260903132138 53 357 2.0 0.0 0.00 0.00 0.00 84 962.1
20260903131642 53 258 2.0 0.0 0.00 0.00 0.00 87 962.1
20260903131225 53 306 0.0 0.0 0.00 0.00 0.00 85 962.4
20260903130638 53 306 0.0 0.0 0.00 0.00 0.00 85 962.4
20260903130227 53 305 0.0 0.0 0.00 0.00 0.00 84 962.4
20260903125724 53 305 0.0 0.0 0.00 0.00 0.00 83 962.4
20260903125225 52 305 0.0 0.0 0.00 0.00 0.00 86 962.4
20260903124727 52 306 0.0 0.0 0.00 0.00 0.00 83 962.4
20260903124138 52 306 0.0 0.0 0.00 0.00 0.00 85 962.4
20260903123725 52 306 0.0 0.0 0.00 0.00 0.00 82 962.4
20260903123223 52 306 0.0 0.0 0.00 0.00 0.00 82 962.4
20260903122723 53 306 0.0 0.0 0.00 0.00 0.00 82 962.4
20260903122222 53 305 0.0 0.0 0.00 0.00 0.00 80 962.4
20260903121721 53 305 0.0 0.0 0.00 0.00 0.00 79 962.4
20260903121222 54 305 0.0 0.0 0.00 0.00 0.00 78 962.4
20260903120722 54 306 0.0 0.0 0.00 0.00 0.00 78 962.4
20260903120222 54 306 0.0 0.0 0.00 0.00 0.00 80 962.1
20260903115720 54 307 2.0 0.0 0.00 0.00 0.00 80 962.4
20260903115219 54 301 0.0 0.0 0.00 0.00 0.00 81 962.4
20260903114720 54 355 0.0 0.0 0.00 0.00 0.00 77 962.4
20260903114223 54 355 0.0 0.0 0.00 0.00 0.00 76 962.4
20260903113638 55 280 0.0 0.0 0.00 0.00 0.00 75 962.4
20260903113219 55 322 0.0 0.0 0.00 0.00 0.00 78 962.4
20260903112719 55 322 0.0 0.0 0.00 0.00 0.00 77 962.4
20260903112217 55 320 0.0 0.0 0.00 0.00 0.00 78 962.4
20260903111641 55 323 0.0 0.0 0.00 0.00 0.00 76 962.4
20260903111142 55 323 0.0 0.0 0.00 0.00 0.00 75 962.4
20260903110716 55 302 0.0 0.0 0.00 0.00 0.00 74 962.4
20260903110141 55 218 0.0 0.0 0.00 0.00 0.00 75 962.4
20260903105716 55 293 0.0 0.0 0.00 0.00 0.00 72 962.4
20260903105142 55 274 0.0 0.0 0.00 0.00 0.00 74 962.8
20260903104715 55 310 0.0 0.0 0.00 0.00 0.00 73 962.8
20260903104142 55 293 0.0 0.0 0.00 0.00 0.00 72 962.8
20260903103714 56 293 0.0 0.0 0.00 0.00 0.00 71 962.8
20260903103142 56 294 0.0 0.0 0.00 0.00 0.00 72 962.8
20260903102635 55 295 0.0 0.0 0.00 0.00 0.00 74 962.8
20260903102213 56 182 0.0 0.0 0.00 0.00 0.00 69 962.8
20260903101636 56 182 0.0 0.0 0.00 0.00 0.00 68 962.8
20260903101213 56 182 0.0 0.0 0.00 0.00 0.00 67 962.8
20260903100712 57 182 0.0 0.0 0.00 0.00 0.00 67 962.8
20260903100213 57 181 0.0 0.0 0.00 0.00 0.00 65 962.8
20260903095712 57 181 0.0 0.0 0.00 0.00 0.00 64 962.8
20260903095137 58 181 0.0 0.0 0.00 0.00 0.00 63 962.8
20260903094711 59 181 2.0 0.0 0.00 0.00 0.00 63 962.8
20260903094137 59 18 4.0 0.0 0.00 0.00 0.00 63 962.8
20260903093645 59 311 4.0 0.0 0.00 0.00 0.00 65 962.8
20260903093137 59 334 6.0 0.0 0.00 0.00 0.00 65 962.8
20260903092641 58 301 4.0 0.0 0.00 0.00 0.00 64 962.8
20260903092138 58 309 4.0 0.0 0.00 0.00 0.00 63 962.8
20260903091641 58 316 4.0 0.0 0.00 0.00 0.00 65 962.8
20260903091136 59 314 3.0 0.0 0.00 0.00 0.00 65 962.8
20260903090637 59 323 2.0 0.0 0.00 0.00 0.00 64 962.8
20260903090138 59 325 4.0 0.0 0.00 0.00 0.00 65 963.1
20260903085638 59 305 4.0 0.0 0.00 0.00 0.00 66 962.8
20260903085141 58 306 2.0 0.0 0.00 0.00 0.00 66 963.1
20260903084638 59 312 1.0 0.0 0.00 0.00 0.00 67 963.1
20260903084140 59 329 1.0 0.0 0.00 0.00 0.00 67 963.1
20260903083637 59 329 2.0 0.0 0.00 0.00 0.00 65 963.4
20260903083140 59 318 2.0 0.0 0.00 0.00 0.00 65 963.1
20260903082638 59 306 2.0 0.0 0.00 0.00 0.00 67 963.1
20260903082141 59 327 2.0 0.0 0.00 0.00 0.00 65 963.4
20260903081637 60 307 2.0 0.0 0.00 0.00 0.00 65 963.1
20260903081138 60 288 2.0 0.0 0.00 0.00 0.00 64 963.4
20260903080637 60 297 3.0 0.0 0.00 0.00 0.00 61 963.1
20260903080138 60 296 2.0 0.0 0.00 0.00 0.00 60 963.4
20260903075638 61 312 2.0 0.0 0.00 0.00 0.00 62 963.1
20260903075141 61 166 0.0 0.0 0.00 0.00 0.00 62 963.1
20260903074640 62 166 1.0 0.0 0.00 0.00 0.00 61 963.1
20260903074138 63 319 2.0 0.0 0.00 0.00 0.00 59 963.1
20260903073635 63 323 2.0 0.0 0.00 0.00 0.00 58 963.1
20260903073139 64 115 4.0 0.0 0.00 0.00 0.00 59 963.4
20260903072643 65 262 4.0 0.0 0.00 0.00 0.00 55 963.1
20260903072141 65 254 4.0 0.0 0.00 0.00 0.00 56 963.4
20260903071645 65 222 3.0 0.0 0.00 0.00 0.00 58 963.4